Skip Page Navigation
NASA JPL Caltech
NASA Logo - Jet Propulsion Laboratory + View the NASA Portal
+ Near-Earth Object (NEO) Program
Search JPL
JPL Home Earth Solar System Stars & Galaxies Technology
JPL Solar System Dynamics
BODIES ORBITS EPHEMERIDES TOOLS PHYSICAL DATA DISCOVERY FAQ SITE MAP
JPL Small-Body Database Browser
Search: [ help ]  
55873 Shiomidake (1997 UP7)
Classification: Main-belt Asteroid          SPK-ID: 2055873
Ephemeris | Orbit Diagram | Orbital Elements | Physical Parameters | Discovery Circumstances | Close-Approach Data ]

[ show orbit diagram ]
Orbital Elements at Epoch 2457000.5 (2014-Dec-09.0) TDB
Reference: JPL 12 (heliocentric ecliptic J2000)
 Element Value Uncertainty (1-sigma)   Units 
e .2300540433895946 4.0292e-08  
a 2.572239952172856 1.7884e-08 AU
q 1.980485750607233 9.9005e-08 AU
i 2.496450497527391 1.1394e-05 deg
node 338.1297010780344 0.000119 deg
peri 105.4518640103549 0.00012347 deg
M 23.30527453388607 3.3658e-05 deg
tp 2456902.952224860159
(2014-Sep-02.45222486)
0.00014031 JED
period 1506.834815409799
4.13
1.5715e-05
4.303e-08
d
yr
n .2389113898341234 2.4916e-09 deg/d
Q 3.163994153738479 2.1998e-08 AU
  Orbit Determination Parameters
   # obs. used (total)      783  
   data-arc span      6299 days (17.25 yr)  
   first obs. used      1997-08-05  
   last obs. used      2014-11-03  
   planetary ephem.      DE431  
   SB-pert. ephem.      SB431-BIG16  
   condition code      0  
   fit RMS      .60423  
   data source      ORB  
   producer      Otto Matic  
   solution date      2014-Nov-10 14:42:56  

Additional Information
 Earth MOID = .997957 AU 
 T_jup = 3.390 
[ show covariance matrix ]

Ephemeris | Orbit Diagram | Orbital Elements | Physical Parameters | Discovery Circumstances | Close-Approach Data ]

Physical Parameter Table
Parameter Symbol Value Units Sigma Reference Notes
absolute magnitude H 14.4 mag n/a MPO267887  

55873 Shiomidake           Discovered 1997 Oct. 26 by M. Akiyama at Mishima.
A mountain in the northern part of Shizuoka in Japan, Shiomidake is 3047 meters high.
NOTE: some special characters may not display properly (any characters within {} are an attempt to place the proper accent above a character)
Reference: 20040306/MPCPages.arcLast Updated: 2004-03-08

[ show close-approach data ]
Ephemeris | Orbit Diagram | Orbital Elements | Physical Parameters | Discovery Circumstances | Close-Approach Data ]
ABOUT SSD CREDITS/AWARDS PRIVACY/COPYRIGHT GLOSSARY LINKS
FirstGov 2014-Nov-24 22:34 UT
(server date/time)  
NASA Home Page
Site Manager:   Donald K. Yeomans
Webmaster  Alan B. Chamberlin